Previsão horária em Pleshchiivka

Hoje, 26 Fevereiro, Sexta-feira

Tempo Temperatura Precipitação Vento Pressão Humidade
00:00 -2°C° 0.1 mm 6 m/s 757 mmHg 97%
01:00 -1°C° 0.1 mm 6 m/s 756 mmHg 97%
02:00 0°C° 0.1 mm 5 m/s 756 mmHg 97%
03:00 0°C° 0.1 mm 5 m/s 756 mmHg 98%
04:00 0°C° 0 mm 5 m/s 756 mmHg 98%
05:00 0°C° 0 mm 4 m/s 756 mmHg 98%
06:00 0°C° 0 mm 4 m/s 755 mmHg 98%
07:00 0°C° 0 mm 4 m/s 755 mmHg 98%
08:00 0°C° 0 mm 4 m/s 755 mmHg 98%
09:00 0°C° 0 mm 4 m/s 755 mmHg 98%
10:00 +1°C° 0 mm 4 m/s 755 mmHg 98%
11:00 +1°C° 0 mm 4 m/s 755 mmHg 98%
12:00 +3°C° 0 mm 4 m/s 755 mmHg 98%
13:00 +3°C° 0 mm 4 m/s 754 mmHg 97%
14:00 +4°C° 0 mm 4 m/s 754 mmHg 95%
15:00 +3°C° 0 mm 5 m/s 754 mmHg 94%
16:00 +3°C° 0 mm 5 m/s 753 mmHg 94%
17:00 +3°C° 0 mm 5 m/s 753 mmHg 95%
18:00 +2°C° 0 mm 5 m/s 753 mmHg 95%
19:00 +2°C° 0 mm 5 m/s 752 mmHg 96%
20:00 +2°C° 0 mm 5 m/s 752 mmHg 96%
21:00 +1°C° 0 mm 5 m/s 752 mmHg 97%
22:00 +1°C° 0 mm 5 m/s 751 mmHg 97%
23:00 +1°C° 0 mm 5 m/s 751 mmHg 97%

Amanhã, 27 Fevereiro, Sábado

Tempo Temperatura Precipitação Vento Pressão Humidade
00:00 +1°C° 0 mm 5 m/s 751 mmHg 97%
01:00 +1°C° 0 mm 4 m/s 750 mmHg 97%
02:00 +1°C° 0 mm 4 m/s 750 mmHg 97%
03:00 +1°C° 0 mm 4 m/s 750 mmHg 97%
04:00 +1°C° 0 mm 4 m/s 750 mmHg 97%
05:00 +1°C° 0 mm 4 m/s 749 mmHg 97%
06:00 +2°C° 0 mm 3 m/s 749 mmHg 97%
07:00 +2°C° 0 mm 3 m/s 749 mmHg 97%
08:00 +2°C° 0 mm 3 m/s 749 mmHg 96%
09:00 +2°C° 0 mm 3 m/s 748 mmHg 95%
10:00 +2°C° 0.3 mm 3 m/s 748 mmHg 96%
11:00 +1°C° 0.3 mm 4 m/s 748 mmHg 97%
12:00 +1°C° 0.3 mm 4 m/s 748 mmHg 97%
13:00 +2°C° 0.2 mm 3 m/s 748 mmHg 97%
14:00 +2°C° 0.2 mm 3 m/s 748 mmHg 97%
15:00 +2°C° 0.2 mm 3 m/s 747 mmHg 96%
16:00 +2°C° 0 mm 3 m/s 748 mmHg 95%
17:00 +2°C° 0 mm 3 m/s 748 mmHg 94%
18:00 +2°C° 0 mm 3 m/s 748 mmHg 93%
19:00 +1°C° 0 mm 3 m/s 748 mmHg 94%
20:00 +1°C° 0 mm 3 m/s 748 mmHg 95%
21:00 +1°C° 0 mm 3 m/s 748 mmHg 96%
22:00 0°C° 0 mm 3 m/s 748 mmHg 96%
23:00 -1°C° 0 mm 4 m/s 749 mmHg 96%

Depois de amanhã, 28 Fevereiro, Domingo

Tempo Temperatura Precipitação Vento Pressão Humidade
00:00 -1°C° 0 mm 4 m/s 749 mmHg 97%
01:00 0°C° 0 mm 3 m/s 749 mmHg 96%
02:00 0°C° 0 mm 3 m/s 749 mmHg 96%
03:00 +1°C° 0 mm 2 m/s 749 mmHg 95%
04:00 +1°C° 0 mm 2 m/s 749 mmHg 96%
05:00 0°C° 0 mm 3 m/s 749 mmHg 96%
06:00 0°C° 0 mm 3 m/s 749 mmHg 97%
07:00 0°C° 0.1 mm 3 m/s 749 mmHg 97%
08:00 0°C° 0.1 mm 3 m/s 750 mmHg 96%
09:00 +1°C° 0.1 mm 2 m/s 750 mmHg 96%
10:00 +1°C° 0 mm 2 m/s 750 mmHg 94%
11:00 +1°C° 0 mm 2 m/s 750 mmHg 92%
12:00 +2°C° 0 mm 2 m/s 751 mmHg 91%
13:00 +1°C° 0.1 mm 3 m/s 751 mmHg 87%
14:00 +1°C° 0.1 mm 3 m/s 751 mmHg 82%
15:00 +2°C° 0.1 mm 3 m/s 751 mmHg 78%
16:00 +1°C° 0 mm 3 m/s 751 mmHg 79%
17:00 +1°C° 0 mm 3 m/s 751 mmHg 81%
18:00 +1°C° 0 mm 3 m/s 752 mmHg 82%
19:00 0°C° 0 mm 3 m/s 752 mmHg 86%
20:00 -1°C° 0 mm 2 m/s 753 mmHg 90%
21:00 -1°C° 0 mm 2 m/s 753 mmHg 94%
22:00 -2°C° 0 mm 2 m/s 753 mmHg 94%
23:00 -2°C° 0 mm 2 m/s 754 mmHg 94%

1 Março, Segunda-feira

Tempo Temperatura Precipitação Vento Pressão Humidade
00:00 -2°C° 0 mm 2 m/s 754 mmHg 93%
01:00 -2°C° 0 mm 2 m/s 754 mmHg 93%
02:00 -2°C° 0 mm 2 m/s 754 mmHg 93%
03:00 -2°C° 0 mm 2 m/s 755 mmHg 92%
04:00 -2°C° 0 mm 2 m/s 755 mmHg 93%
05:00 -2°C° 0 mm 2 m/s 755 mmHg 94%
06:00 -3°C° 0 mm 2 m/s 755 mmHg 95%
07:00 -2°C° 0 mm 2 m/s 756 mmHg 92%
08:00 -2°C° 0 mm 2 m/s 756 mmHg 89%
09:00 -1°C° 0 mm 2 m/s 757 mmHg 87%
10:00 -1°C° 0 mm 2 m/s 757 mmHg 82%
11:00 +1°C° 0 mm 2 m/s 757 mmHg 77%
12:00 +2°C° 0 mm 2 m/s 758 mmHg 73%
13:00 +2°C° 0.1 mm 2 m/s 758 mmHg 71%
14:00 +2°C° 0.1 mm 2 m/s 758 mmHg 69%
15:00 +3°C° 0.1 mm 2 m/s 758 mmHg 68%
16:00 +2°C° 0.1 mm 2 m/s 758 mmHg 73%
17:00 +1°C° 0.1 mm 2 m/s 758 mmHg 77%
18:00 +2°C° 0.1 mm 1 m/s 758 mmHg 82%
19:00 +1°C° 0.1 mm 1 m/s 759 mmHg 84%
20:00 +1°C° 0.1 mm 1 m/s 759 mmHg 86%
21:00 0°C° 0.1 mm 1 m/s 759 mmHg 87%
22:00 0°C° 0 mm 1 m/s 759 mmHg 88%
23:00 0°C° 0 mm 1 m/s 759 mmHg 89%

2 Março, Terça-feira

Tempo Temperatura Precipitação Vento Pressão Humidade
00:00 0°C° 0 mm 1 m/s 759 mmHg 89%
01:00 0°C° 0 mm 1 m/s 759 mmHg 90%
02:00 -1°C° 0 mm 1 m/s 759 mmHg 90%
03:00 -1°C° 0 mm 1 m/s 759 mmHg 91%
04:00 -1°C° 0 mm 1 m/s 759 mmHg 91%
05:00 -1°C° 0 mm 1 m/s 759 mmHg 91%
06:00 -3°C° 0 mm 2 m/s 759 mmHg 91%
07:00 -2°C° 0 mm 2 m/s 759 mmHg 86%
08:00 -2°C° 0 mm 3 m/s 759 mmHg 81%
09:00 -2°C° 0 mm 4 m/s 759 mmHg 77%
10:00 -1°C° 0 mm 4 m/s 758 mmHg 73%
11:00 -1°C° 0 mm 5 m/s 758 mmHg 70%
12:00 0°C° 0 mm 5 m/s 758 mmHg 66%
13:00 +1°C° 0 mm 5 m/s 757 mmHg 68%
14:00 +1°C° 0 mm 6 m/s 757 mmHg 69%
15:00 +1°C° 0 mm 6 m/s 756 mmHg 71%
16:00 +1°C° 0 mm 6 m/s 756 mmHg 76%
17:00 -1°C° 0 mm 6 m/s 755 mmHg 82%
18:00 -1°C° 0 mm 6 m/s 755 mmHg 87%
19:00 -1°C° 0 mm 6 m/s 755 mmHg 89%
20:00 -1°C° 0 mm 6 m/s 755 mmHg 91%
21:00 -1°C° 0 mm 6 m/s 754 mmHg 92%
22:00 0°C° 0 mm 5 m/s 754 mmHg 89%
23:00 0°C° 0 mm 5 m/s 755 mmHg 86%

3 Março, Quarta-feira

Tempo Temperatura Precipitação Vento Pressão Humidade
00:00 -1°C° 0 mm 4 m/s 755 mmHg 83%
01:00 -1°C° 0 mm 4 m/s 755 mmHg 83%
02:00 -1°C° 0 mm 4 m/s 754 mmHg 82%
03:00 -1°C° 0 mm 4 m/s 754 mmHg 81%
04:00 -2°C° 0 mm 4 m/s 755 mmHg 82%
05:00 -2°C° 0 mm 4 m/s 755 mmHg 82%
06:00 -3°C° 0 mm 4 m/s 755 mmHg 82%
07:00 -2°C° 0 mm 4 m/s 755 mmHg 79%
08:00 -1°C° 0 mm 4 m/s 755 mmHg 77%
09:00 -1°C° 0 mm 5 m/s 755 mmHg 74%
10:00 +1°C° 0 mm 5 m/s 755 mmHg 72%
11:00 +2°C° 0 mm 5 m/s 755 mmHg 69%
12:00 +3°C° 0 mm 5 m/s 755 mmHg 66%
13:00 +5°C° 0 mm 5 m/s 754 mmHg 66%
14:00 +5°C° 0 mm 6 m/s 754 mmHg 66%
15:00 +5°C° 0 mm 6 m/s 754 mmHg 66%
16:00 +5°C° 0 mm 6 m/s 753 mmHg 68%
17:00 +6°C° 0 mm 5 m/s 753 mmHg 69%
18:00 +6°C° 0 mm 5 m/s 753 mmHg 71%
19:00 +5°C° 0 mm 4 m/s 753 mmHg 76%
20:00 +4°C° 0 mm 4 m/s 753 mmHg 80%
21:00 +3°C° 0 mm 4 m/s 753 mmHg 85%
22:00 +2°C° 0 mm 3 m/s 754 mmHg 88%
23:00 +3°C° 0 mm 2 m/s 754 mmHg 91%
Mostrar mais

Necessitamos do seu Consentimento

A Meteoprog e os seus Fornecedores de Serviços podem armazenar e aceder a dados pessoais como cookies, identificadores do dispositivo ou outras tecnologias semelhantes existentes no seu dispositivo e processar estes dados para personalizar conteúdos e anúncios, assim como funcionalidades nas redes sociais e análise de tráfego.

  • Armazenar e/ou aceder a informações no seu dispositivo

    Os cookies, identificadores do dispositivo ou outras informações podem ser armazenados ou acedidos no seu dispositivo, para os fins acima indicados.

  • Anúncios e conteúdos personalizados, medição de anúncios e conteúdos, dados sobre o público-alvo e desenvolvimento de produtos

    Os anúncios e os conteúdos podem ser personalizados com base num perfil. Podem ser adicionados dados adicionais para uma maior personalização dos anúncios e dos conteúdos. A eficácia dos anúncios e dos conteúdos pode ser medida. Podem ser obtidas informações sobre o público que visualizou os anúncios e os conteúdos. Estes dados podem ser usados para desenvolver ou melhorar sistemas, softwares ou a experiência do utilizador.

Ao clicar em "Eu concordo”, permitirá o uso de cookies, identificadores do dispositivo e web beacons mencionados ou outras tecnologias semelhantes. As configurações do navegador do seu dispositivo podem ser alteradas.

Para certos fins, podem ser invocados interesses legítimos ao invés de consentimento. Pode ler mais informação sobre este assunto na nossa Política de Privacidade e Cookies.